Miscellaneous Local Product
Issued by NWS North Platte, NE

Home | Current Version | Previous Version | Text Only | Print | Product List | Glossary On
Versions: 1 2 3 4 5 6 7 8 9 10 11 12 13 14 15 16 17 18 19 20 21 22 23 24 25 26 27 28 29 30 31 32 33 34 35 36 37 38 39 40 41 42 43 44 45 46 47 48 49 50
000
AXUS43 KLBF 201710
MISLBF


WESTERN AND NORTH CENTRAL NEBRASKA HOURLY WEATHER ROUNDUP
NATIONAL WEATHER SERVICE NORTH PLATTE NE
1100 AM CST MON NOV 20 2017

NOTE: "FAIR" INDICATES FEW OR NO CLOUDS BELOW 12,000 FEET WITH NO
SIGNIFICANT WEATHER AND/OR OBSTRUCTIONS TO VISIBILITY.

NOTE: STATIONS NOT REPORTING VARIABLES SUCH AS SKY/WEATHER OR
PRESSURE ARE PROVIDED BY RAWS AND APRS NETWORKS AND ARE NOT UNDER
NATIONAL WEATHER SERVICE QUALITY CONTROL.

...OBSERVATIONS IN AND NEAR THE EASTERN PANHANDLE OF NEBRASKA...

CITY           SKY/WX    TMP DP  RH WIND       PRES   REMARKS
PINE RIDGE     CLOUDY    53  14  21 W12G21    29.67S
GORDON         FAIR      47  18  30 W12       29.65S
CHADRON        CLOUDY    51  18  27 W12       29.67S
ALLIANCE       CLOUDY    58   8  13 W24G39    29.67F
SIDNEY         CLOUDY    63   2   8 W26G35    29.76F
CRESCENT LAKE    N/A     59   7  12 W17G29      N/A
$$

...OBSERVATIONS IN NORTHERN NEBRASKA AND FAR SOUTHERN SOUTH DAKOTA...

CITY           SKY/WX    TMP DP  RH WIND       PRES   REMARKS
WINNER         FAIR      49  23  36 SW8       29.57R
VALENTINE      CLOUDY    50  18  28 W15       29.58F
THEDFORD       CLOUDY    58  17  19 W18G24    29.64F
AINSWORTH      CLOUDY    50  21  31 W13       29.60S
O`NEILL        CLOUDY    50  24  35 W13       29.60S
ORD            CLOUDY    51  24  34 W8        29.64S
BROKEN BOW     CLOUDY    53  20  27 W17       29.67F
VALENTINE NWR    N/A     48  16  27 W9          N/A
HALSEY           N/A     48  18  30 W5          N/A
BUTTE            N/A     42  25  50 SW9         N/A
CHAMBERS         N/A     51  28  40 W7          N/A
EWING            N/A     49  27  42 W7          N/A
$$

...OBSERVATIONS IN SOUTHWEST NEBRASKA AND FAR NORTHEAST COLORADO...

CITY           SKY/WX    TMP DP  RH WIND       PRES   REMARKS
HOLYOKE        FAIR      66   7   9 W18G28    29.76S
IMPERIAL       SUNNY     62  12  14 W10       29.76S
OGALLALA       SUNNY     52  19  27 W18       29.73S
NORTH PLATTE   CLOUDY    46  27  47 NW8       29.73S
MCCOOK         SUNNY     49  23  36 W10       29.76F
LEXINGTON      CLOUDY    48  27  43 CALM      29.71S
STAPLETON        N/A     51  24  35 CALM        N/A
GOTHENBURG       N/A     52  21  29 W5          N/A
CALLAWAY         N/A     55  21  26 W20         N/A
$$

...OBSERVATIONS IN CENTRAL LINCOLN COUNTY AREA...

CITY           SKY/WX    TMP DP  RH WIND       PRES   REMARKS
N.P. AIRPORT   CLOUDY    46  27  47 NW8       29.73S
N.P. DOWNTOWN    N/A     46  26  45 CALM        N/A
N.P. SOUTHEAST   N/A     47  25  42 W3          N/A
N.P. HILLCREST   N/A     46  28  48 W10         N/A
$$

...SOME OBSERVATIONS FROM AROUND THE REGION...

CITY           SKY/WX    TMP DP  RH WIND       PRES   REMARKS
DENVER         CLOUDY    56   5  13 S12       29.83S
LIMON          CLOUDY    50  12  21 NE3       29.87R
ASPEN          CLOUDY    30  18  60 NW3       30.15R
LARAMIE        CLOUDY    42   9  25 SW20G32   29.93S
CASPER         CLOUDY    43  13  29 SW23G33   29.84F
CHEYENNE       CLOUDY    52   1  12 W38G51    29.77F
SCOTTSBLUFF    CLOUDY    63   4   9 W31G46    29.70S
GRAND ISLAND   CLOUDY    53  26  35 W15       29.69F
OMAHA          PTSUNNY   52  25  35 S14       29.69F
SIOUX FALLS    CLOUDY    42  27  55 SW6       29.56F
PIERRE         CLOUDY    45  23  42 W10       29.53R
RAPID CITY     SUNNY     61  11  14 W7        29.60R
BISMARCK       CLOUDY    52  24  33 W12       29.44R
KANSAS CITY    MOSUNNY   56  28  34 SW22G38   29.86F
HILL CITY      SUNNY     59  24  26 W8        29.78R
WICHITA        MOSUNNY   55  28  35 SW23G38   29.90F
DODGE CITY     SUNNY     51  21  30 SW10      29.84F
OKLAHOMA CITY  MOSUNNY   57  28  33 S24G33    30.03F
DALLAS         MOSUNNY   61  30  31 S15       30.15F
AMARILLO       CLOUDY    53  17  24 SW7       29.93F
$$




USA.gov is the U.S. government's official web portal to all federal, state and local government web resources and services.